User: anonymous   Login
Location: Unspecified
(0.0000°N, 0.0000°E)
Time: 07:32:06
(UTC+00:00)
Language:

POLYITAN 1 - Orbit

View from above orbital plane
View from above orbital plane
View from above satellite
View from above satellite

Ground track
Ground track

The orbit data is extracted from the following two-line orbital elements,

1 40042U 14033AJ  17148.81987616 +.00000477 +00000-0 +57944-4 0  9999
2 40042 097.9214 059.9213 0015001 003.0001 357.1302 14.88035635159542
Epoch (UTC): 28 May 2017 19:40:37
Eccentricity: 0.0015001
inclination: 97.9214°
perigee height: 593 km
apogee height: 614 km
right ascension of ascending node: 59.9213°
argument of perigee: 3.0001°
revolutions per day: 14.88035635
mean anomaly at epoch: 357.1302°
orbit number at epoch: 15954

The dashed part of the orbit path shows where the satellite is in the earth's shadow,  

DLR